| time (UTC) | temp F | wind direction | speed MPH | gust MPH | rain 1hr in | rain 24hr in | rain mn in | humidity % | barometer mb |
| 20260505022418 | 80 | 310 | 1.0 | 2.0 | 0.00 | 0.00 | 0.00 | 20 | 1002.0 |
| 20260505021419 | 80 | 277 | 1.0 | 2.0 | 0.00 | 0.00 | 0.00 | 20 | 1002.0 |
| 20260505020419 | 81 | 298 | 2.0 | 3.0 | 0.00 | 0.00 | 0.00 | 18 | 1001.9 |
| 20260505015419 | 82 | 295 | 2.0 | 2.0 | 0.00 | 0.00 | 0.00 | 17 | 1001.9 |
| 20260505014420 | 82 | 291 | 1.0 | 2.0 | 0.00 | 0.00 | 0.00 | 17 | 1002.0 |
| 20260505013440 | 82 | 284 | 1.0 | 2.0 | 0.00 | 0.00 | 0.00 | 17 | 1002.0 |
| 20260505012420 | 83 | 295 | 2.0 | 3.0 | 0.00 | 0.00 | 0.00 | 16 | 1002.0 |
| 20260505011420 | 84 | 277 | 2.0 | 2.0 | 0.00 | 0.00 | 0.00 | 14 | 1002.0 |
| 20260505010420 | 84 | 276 | 3.0 | 4.0 | 0.00 | 0.00 | 0.00 | 14 | 1002.0 |
| 20260505005421 | 84 | 291 | 2.0 | 3.0 | 0.00 | 0.00 | 0.00 | 12 | 1002.2 |
| 20260505004421 | 84 | 299 | 3.0 | 5.0 | 0.00 | 0.00 | 0.00 | 11 | 1002.3 |
| 20260505003421 | 84 | 296 | 1.0 | 2.0 | 0.00 | 0.00 | 0.00 | 10 | 1002.5 |
| 20260505002421 | 84 | 282 | 2.0 | 3.0 | 0.00 | 0.00 | 0.00 | 11 | 1002.5 |
| 20260505001421 | 84 | 285 | 2.0 | 2.0 | 0.00 | 0.00 | 0.00 | 11 | 1002.6 |
| 20260505000441 | 84 | 261 | 1.0 | 1.0 | 0.00 | 0.00 | 0.00 | 12 | 1002.7 |
| 20260504235441 | 84 | 266 | 2.0 | 2.0 | 0.00 | 0.00 | 0.00 | 12 | 1002.8 |
| 20260504234421 | 83 | 285 | 2.0 | 3.0 | 0.00 | 0.00 | 0.00 | 14 | 1002.8 |
| 20260504233422 | 83 | 271 | 1.0 | 1.0 | 0.00 | 0.00 | 0.00 | 16 | 1002.9 |
| 20260504232422 | 83 | 317 | 3.0 | 4.0 | 0.00 | 0.00 | 0.00 | 16 | 1003.0 |
| 20260504231442 | 84 | 294 | 2.0 | 3.0 | 0.00 | 0.00 | 0.00 | 17 | 1003.0 |
| 20260504230423 | 84 | 279 | 2.0 | 3.0 | 0.00 | 0.00 | 0.00 | 17 | 1003.3 |
| 20260504225422 | 83 | 316 | 1.0 | 2.0 | 0.00 | 0.00 | 0.00 | 18 | 1003.4 |
| 20260504224503 | 83 | 295 | 1.0 | 2.0 | 0.00 | 0.00 | 0.00 | 20 | 1003.4 |
| 20260504223423 | 83 | 2 | 1.0 | 2.0 | 0.00 | 0.00 | 0.00 | 18 | 1003.6 |
| 20260504222423 | 83 | 0 | 0.0 | 0.0 | 0.00 | 0.00 | 0.00 | 18 | 1003.8 |
| 20260504221456 | 83 | 274 | 0.0 | 1.0 | 0.00 | 0.00 | 0.00 | 22 | 1003.9 |
| 20260504220423 | 82 | 269 | 1.0 | 2.0 | 0.00 | 0.00 | 0.00 | 22 | 1004.2 |
| 20260504215443 | 82 | 286 | 0.0 | 1.0 | 0.00 | 0.00 | 0.00 | 23 | 1004.2 |
| 20260504214423 | 82 | 259 | 1.0 | 1.0 | 0.00 | 0.00 | 0.00 | 23 | 1004.4 |
| 20260504213424 | 81 | 278 | 2.0 | 2.0 | 0.00 | 0.00 | 0.00 | 24 | 1004.6 |
| 20260504212424 | 81 | 269 | 1.0 | 1.0 | 0.00 | 0.00 | 0.00 | 26 | 1004.7 |
| 20260504211417 | 80 | 339 | 0.0 | 1.0 | 0.00 | 0.00 | 0.00 | 28 | 1004.7 |
| 20260504210438 | 80 | 239 | 1.0 | 1.0 | 0.00 | 0.00 | 0.00 | 28 | 1005.1 |
| 20260504205418 | 79 | 264 | 2.0 | 3.0 | 0.00 | 0.00 | 0.00 | 28 | 1005.3 |
| 20260504204418 | 79 | 267 | 1.0 | 1.0 | 0.00 | 0.00 | 0.00 | 26 | 1005.3 |
| 20260504203418 | 78 | 277 | 1.0 | 1.0 | 0.00 | 0.00 | 0.00 | 29 | 1005.5 |
| 20260504202418 | 78 | 288 | 1.0 | 1.0 | 0.00 | 0.00 | 0.00 | 28 | 1005.5 |
| 20260504201418 | 77 | 268 | 1.0 | 1.0 | 0.00 | 0.00 | 0.00 | 28 | 1005.6 |
| 20260504200419 | 77 | 251 | 1.0 | 2.0 | 0.00 | 0.00 | 0.00 | 29 | 1005.7 |
| 20260504195419 | 76 | 282 | 1.0 | 2.0 | 0.00 | 0.00 | 0.00 | 30 | 1005.9 |
| 20260504194419 | 76 | 286 | 2.0 | 2.0 | 0.00 | 0.00 | 0.00 | 30 | 1005.9 |
| 20260504193420 | 76 | 233 | 3.0 | 4.0 | 0.00 | 0.00 | 0.00 | 30 | 1006.1 |
| 20260504192419 | 75 | 240 | 1.0 | 1.0 | 0.00 | 0.00 | 0.00 | 30 | 1006.2 |
| 20260504191419 | 75 | 211 | 1.0 | 2.0 | 0.00 | 0.00 | 0.00 | 32 | 1006.5 |
| 20260504190420 | 74 | 243 | 2.0 | 2.0 | 0.00 | 0.00 | 0.00 | 35 | 1006.6 |
| 20260504185420 | 73 | 266 | 1.0 | 2.0 | 0.00 | 0.00 | 0.00 | 35 | 1006.7 |
| 20260504184420 | 73 | 282 | 1.0 | 1.0 | 0.00 | 0.00 | 0.00 | 36 | 1006.9 |
| 20260504183420 | 72 | 226 | 0.0 | 1.0 | 0.00 | 0.00 | 0.00 | 36 | 1007.1 |
| 20260504182420 | 71 | 223 | 0.0 | 1.0 | 0.00 | 0.00 | 0.00 | 36 | 1007.1 |
| 20260504181420 | 70 | 249 | 2.0 | 2.0 | 0.00 | 0.00 | 0.00 | 37 | 1007.3 |
| 20260504180421 | 69 | 245 | 1.0 | 1.0 | 0.00 | 0.00 | 0.00 | 40 | 1007.3 |
| 20260504175422 | 68 | 263 | 1.0 | 2.0 | 0.00 | 0.00 | 0.00 | 43 | 1007.5 |
| 20260504174421 | 68 | 301 | 2.0 | 3.0 | 0.00 | 0.00 | 0.00 | 46 | 1007.5 |
| 20260504173422 | 67 | 239 | 2.0 | 3.0 | 0.00 | 0.00 | 0.00 | 46 | 1007.5 |
| 20260504172423 | 66 | 253 | 2.0 | 3.0 | 0.00 | 0.00 | 0.00 | 48 | 1007.7 |
| 20260504171422 | 65 | 234 | 2.0 | 4.0 | 0.00 | 0.00 | 0.00 | 48 | 1007.7 |
| 20260504170422 | 65 | 89 | 1.0 | 1.0 | 0.00 | 0.00 | 0.00 | 49 | 1007.7 |
| 20260504160423 | 60 | 296 | 2.0 | 3.0 | 0.00 | 0.00 | 0.00 | 58 | 1008.1 |
| 20260504150424 | 55 | 248 | 1.0 | 1.0 | 0.00 | 0.00 | 0.00 | 65 | 1008.2 |
| 20260504140425 | 51 | 34 | 1.0 | 2.0 | 0.00 | 0.00 | 0.00 | 73 | 1008.1 |
| 20260504130418 | 48 | 161 | 1.0 | 1.0 | 0.00 | 0.00 | 0.00 | 73 | 1007.5 |
| 20260504110420 | 52 | 64 | 1.0 | 1.0 | 0.00 | 0.00 | 0.00 | 66 | 1007.2 |
| 20260504100421 | 53 | 189 | 1.0 | 1.0 | 0.00 | 0.00 | 0.00 | 64 | 1007.0 |
| 20260504081423 | 58 | 108 | 1.0 | 1.0 | 0.00 | 0.00 | 0.00 | 53 | 1007.0 |
| 20260504080422 | 59 | 0 | 0.0 | 0.0 | 0.00 | 0.00 | 0.00 | 52 | 1006.9 |
| 20260504050426 | 67 | 0.0 | 0.0 | 0.00 | 0.00 | 0.00 | 40 | 1006.6 | |
| 20260504045426 | 67 | 0.0 | 0.0 | 0.00 | 0.00 | 0.00 | 40 | 1006.7 | |
| 20260504044426 | 68 | 0.0 | 0.0 | 0.00 | 0.00 | 0.00 | 37 | 1006.6 | |
| 20260504043427 | 69 | 0.0 | 0.0 | 0.00 | 0.00 | 0.00 | 36 | 1006.6 | |
| 20260504042426 | 69 | 0.0 | 0.0 | 0.00 | 0.00 | 0.00 | 35 | 1006.6 | |
| 20260504041427 | 70 | 0.0 | 0.0 | 0.00 | 0.00 | 0.00 | 35 | 1006.5 | |
| 20260504040427 | 71 | 0.0 | 0.0 | 0.00 | 0.00 | 0.00 | 34 | 1006.5 | |
| 20260504035427 | 72 | 0.0 | 0.0 | 0.00 | 0.00 | 0.00 | 32 | 1006.4 | |
| 20260504034427 | 72 | 283 | 1.0 | 2.0 | 0.00 | 0.00 | 0.00 | 30 | 1006.4 |
| 20260504033427 | 73 | 0.0 | 0.0 | 0.00 | 0.00 | 0.00 | 29 | 1006.2 | |
| 20260504032417 | 74 | 0.0 | 0.0 | 0.00 | 0.00 | 0.00 | 28 | 1006.1 | |
| 20260504031417 | 75 | 0.0 | 0.0 | 0.00 | 0.00 | 0.00 | 28 | 1006.0 | |
| 20260504030428 | 76 | 0.0 | 0.0 | 0.00 | 0.00 | 0.00 | 26 | 1005.9 | |
| 20260504025428 | 77 | 0 | 0.0 | 0.0 | 0.00 | 0.00 | 0.00 | 23 | 1005.8 |
| 20260504024429 | 78 | 289 | 1.0 | 2.0 | 0.00 | 0.00 | 0.00 | 22 | 1005.9 |
| 20260504023417 | 79 | 293 | 0.0 | 1.0 | 0.00 | 0.00 | 0.00 | 20 | 1005.9 |